Terug naar catalogus

ARIANE 2 DEB

LostGTO
NORAD 33563·DEBRIS·🇫🇷 France

Gelanceerd Jan 27, 1989 vanaf Guiana Space Centre

Loading…

TLE

VerouderdSource: Space-Track

Epoch: Jun 8, 2022, 08:04 UTC

1 33563U 89006BF  22159.33639008  .00000007  00000-0 -99975-3 0  9994
2 33563  21.8385 224.6915 7479558  78.9412 349.6239  1.89019423    18

Volg ARIANE 2 DEB in realtime met AllMySat

Download on the App Store